Voltar ao catálogo

STARLINK-36639

AtivoComunicaçõesSSO
NORAD 67669·PAYLOAD·🇺🇸 United States

Lançado Feb 2, 2026 de Vandenberg Space Force Base

Loading…

Próximas Passagens (próximas 24 horas)

TLE

AtualizadoSource: CelesTrak SupGP

Época: Sep 15, 2026, 04:14 UTC

1 67669C 26022X   26258.17687500 -.00052014  00000+0 -16147-2 0  2585
2 67669  97.2841 289.8258 0001155  92.3068 204.2546 15.33463725    12

Acompanhe STARLINK-36639 em tempo real com AllMySat

Download on the App Store